Location: Newark
(25.6108°S, 54.5803°W)
Time: 04:49:11
(UTC+00:00)

deb Explorer IX - Pass Details

Date: 28 October 2020
Orbit: 538 x 1104 km, 38.8° (Epoch: 27 November)

Event Time Altitude Azimuth Distance (km) Brightness Sun altitude
Rises 03:01:46 0° 240° (WSW) 2,711 - -50.8°
Reaches altitude 10° 03:04:00 10° 241° (WSW) 1,803 - -50.9°
Maximum altitude 03:08:04 79° 327° (NNW) 559 - -51.0°
Drops below altitude 10° 03:12:17 10° 54° (NE) 1,868 - -51.1°
Sets 03:14:39 0° 55° (NE) 2,818 - -51.1°
